GW2980 Weather Reports


time (UTC)temp
F
wind
direction
speed
knots
gust
knots
rain 1hr
in
rain 24hr
in
rain mn
in
humidity
%
barometer
mb
20260509075436 71 0.0 0.0 0.00 0.00 0.00 52 943.0
20260509075136 73 0.0 0.0 0.00 0.00 0.00 54 943.0
20260509074836 72 0.0 0.0 0.00 0.00 0.00 57 943.0
20260509074536 70 0.0 0.0 0.00 0.00 0.00 59 943.0
20260509074236 64 0.0 0.0 0.00 0.00 0.00 67 944.0
20260509073936 60 0.0 0.0 0.00 0.00 0.00 71 944.0
20260509073635 57 0.0 0.0 0.00 0.00 0.00 73 944.0
20260509073336 57 0.0 0.0 0.00 0.00 0.00 73 944.0
20260509073036 57 0.0 0.0 0.00 0.00 0.00 73 944.0
20260509072735 57 0.0 0.0 0.00 0.00 0.00 73 944.0
20260509072435 58 0.0 0.0 0.00 0.00 0.00 71 944.0
20260509072136 59 0.0 0.0 0.00 0.00 0.00 71 944.5
20260509071836 59 0.0 0.0 0.00 0.00 0.00 71 944.5
20260509071536 59 0.0 0.0 0.00 0.00 0.00 71 944.5
20260509071236 60 0.0 0.0 0.00 0.00 0.00 70 944.0
20260509070936 60 0.0 0.0 0.00 0.00 0.00 70 944.0
20260509070636 60 0.0 0.0 0.00 0.00 0.00 70 944.0
20260509065435 54 0.0 0.0 0.00 0.00 0.00 79 944.0
20260509065136 54 0.0 0.0 0.00 0.00 0.00 79 944.0
20260509064835 54 0.0 0.0 0.00 0.00 0.00 79 944.0
20260509063936 53 0.0 0.0 0.00 0.00 0.00 80 944.8
20260509063635 53 0.0 0.0 0.00 0.00 0.00 80 944.8
20260509063336 53 0.0 0.0 0.00 0.00 0.00 80 944.8
20260509063036 53 0.0 0.0 0.00 0.00 0.00 80 944.8
20260509062436 53 0.0 0.0 0.00 0.00 0.00 80 944.8
20260509062136 53 0.0 0.0 0.00 0.00 0.00 80 944.8
20260509061836 52 0.0 0.0 0.00 0.00 0.00 80 944.0
20260509061536 52 0.0 0.0 0.00 0.00 0.00 80 944.0
20260509060936 52 0.0 0.0 0.00 0.00 0.00 80 944.0
20260509060636 52 0.0 0.0 0.00 0.00 0.00 80 944.0
20260509060336 52 0.0 0.0 0.00 0.00 0.00 80 944.0
20260509060036 52 0.0 0.0 0.00 0.00 0.00 80 944.0
20260509055736 52 0.0 0.0 0.00 0.00 0.00 80 944.0
20260509055435 52 0.0 0.0 0.00 0.00 0.00 80 944.0
20260509055136 52 0.0 0.0 0.00 0.00 0.00 80 944.0
20260509054835 52 0.0 0.0 0.00 0.00 0.00 80 944.0
20260509054535 52 0.0 0.0 0.00 0.00 0.00 80 944.0
20260509054236 53 0.0 0.0 0.00 0.00 0.00 80 944.6
20260509053936 53 0.0 0.0 0.00 0.00 0.00 80 944.6
20260509053636 53 0.0 0.0 0.00 0.00 0.00 80 944.6
20260509053036 53 0.0 0.0 0.00 0.00 0.00 80 944.6
20260509052736 53 0.0 0.0 0.00 0.00 0.00 80 944.6
20260509052436 52 0.0 0.0 0.00 0.00 0.00 81 944.0
20260509051836 52 0.0 0.0 0.00 0.00 0.00 81 944.0
20260509051535 52 0.0 0.0 0.00 0.00 0.00 81 944.0
20260509051236 52 0.0 0.0 0.00 0.00 0.00 80 944.0
20260509050936 52 0.0 0.0 0.00 0.00 0.00 80 944.0
20260509050636 52 0.0 0.0 0.00 0.00 0.00 80 944.0
20260509050335 52 0.0 0.0 0.00 0.00 0.00 80 944.0
20260509050036 52 0.0 0.0 0.00 0.00 0.00 80 944.0
20260509045736 52 0.0 0.0 0.00 0.00 0.00 80 944.0
20260509045135 52 0.0 0.0 0.00 0.00 0.00 80 944.0
20260509044535 52 0.0 0.0 0.00 0.00 0.00 80 944.6
20260509043935 52 0.0 0.0 0.00 0.00 0.00 80 944.6
20260509043636 52 0.0 0.0 0.00 0.00 0.00 80 944.6
20260509043336 52 0.0 0.0 0.00 0.00 0.00 80 944.6
20260509043036 52 0.0 0.0 0.00 0.00 0.00 80 944.6
20260509042736 52 0.0 0.0 0.00 0.00 0.00 79 944.0
20260509042435 52 0.0 0.0 0.00 0.00 0.00 79 944.0
20260509042136 53 0.0 0.0 0.00 0.00 0.00 77 944.0
20260509041835 53 0.0 0.0 0.00 0.00 0.00 77 944.0
20260509041236 53 0.0 0.0 0.00 0.00 0.00 76 944.0
20260509040935 53 0.0 0.0 0.00 0.00 0.00 76 944.0
20260509040635 53 0.0 0.0 0.00 0.00 0.00 76 944.0
20260509040335 53 0.0 0.0 0.00 0.00 0.00 76 944.0
20260509040036 53 0.0 0.0 0.00 0.00 0.00 76 944.0
20260509035736 53 0.0 0.0 0.00 0.00 0.00 76 944.0
20260509035436 53 0.0 0.0 0.00 0.00 0.00 76 944.0
20260509035135 53 0.0 0.0 0.00 0.00 0.00 76 944.0
20260509034536 52 0.0 0.0 0.00 0.00 0.00 77 945.0
20260509034236 52 0.0 0.0 0.00 0.00 0.00 77 945.0
20260509033936 52 0.0 0.0 0.00 0.00 0.00 75 945.0
20260509033635 53 0.0 0.0 0.00 0.00 0.00 75 944.0
20260509033336 53 0.0 0.0 0.00 0.00 0.00 75 944.0
20260509033035 52 0.0 0.0 0.00 0.00 0.00 76 945.0
20260509032435 52 0.0 0.0 0.00 0.00 0.00 76 945.0
20260509032136 52 0.0 0.0 0.00 0.00 0.00 76 945.0
20260509031836 52 0.0 0.0 0.00 0.00 0.00 76 945.0
20260509031536 52 0.0 0.0 0.00 0.00 0.00 76 945.0
20260509031236 51 0.0 0.0 0.00 0.00 0.00 76 945.0
20260509030939 51 0.0 0.0 0.00 0.00 0.00 76 945.0
20260509030635 51 0.0 0.0 0.00 0.00 0.00 76 945.0
20260509030335 51 0.0 0.0 0.00 0.00 0.00 76 945.0
20260509030036 51 0.0 0.0 0.00 0.00 0.00 76 945.0
20260509025436 51 0.0 0.0 0.00 0.00 0.00 77 945.0
20260509025136 51 0.0 0.0 0.00 0.00 0.00 77 945.0
20260509024836 51 0.0 0.0 0.00 0.00 0.00 77 945.0
20260509024536 51 0.0 0.0 0.00 0.00 0.00 78 944.0
20260509024235 51 0.0 0.0 0.00 0.00 0.00 78 944.0
20260509023935 51 0.0 0.0 0.00 0.00 0.00 78 944.0
20260509023635 51 0.0 0.0 0.00 0.00 0.00 78 944.0
20260509023335 51 0.0 0.0 0.00 0.00 0.00 78 944.0
20260509022735 51 0.0 0.0 0.00 0.00 0.00 81 945.0
20260509022435 51 0.0 0.0 0.00 0.00 0.00 81 945.0
20260509022136 51 0.0 0.0 0.00 0.00 0.00 81 945.0
20260509021835 51 0.0 0.0 0.00 0.00 0.00 81 945.0
20260509021535 51 0.0 0.0 0.00 0.00 0.00 81 945.0
20260509020935 51 0.0 0.0 0.00 0.00 0.00 81 945.0
20260509020636 51 0.0 0.0 0.00 0.00 0.00 81 945.0
20260509020036 51 0.0 0.0 0.00 0.00 0.00 81 945.0
20260509015736 51 0.0 0.0 0.00 0.00 0.00 81 945.0
20260509015436 51 0.0 0.0 0.00 0.00 0.00 81 944.0
20260509015136 51 0.0 0.0 0.00 0.00 0.00 81 944.0
20260509014835 51 0.0 0.0 0.00 0.00 0.00 81 944.0
20260509014536 51 0.0 0.0 0.00 0.00 0.00 81 944.0
20260509014236 51 0.0 0.0 0.00 0.00 0.00 81 944.0
20260509013936 52 0.0 0.0 0.00 0.00 0.00 79 944.0
20260509013636 52 0.0 0.0 0.00 0.00 0.00 79 944.0
20260509013336 52 0.0 0.0 0.00 0.00 0.00 79 945.0
20260509013035 52 0.0 0.0 0.00 0.00 0.00 79 945.0
20260509012736 52 0.0 0.0 0.00 0.00 0.00 80 945.0
20260509012436 52 0.0 0.0 0.00 0.00 0.00 80 945.0
20260509012136 52 0.0 0.0 0.00 0.00 0.00 80 945.0
20260509011836 52 0.0 0.0 0.00 0.00 0.00 80 945.0
20260509011536 52 0.0 0.0 0.00 0.00 0.00 80 945.0
20260509011236 52 0.0 0.0 0.00 0.00 0.00 78 945.0
20260509010935 52 0.0 0.0 0.00 0.00 0.00 78 945.0
20260509010636 52 0.0 0.0 0.00 0.00 0.00 78 945.0
20260509010336 52 0.0 0.0 0.00 0.00 0.00 78 945.0
20260509010036 54 0.0 0.0 0.00 0.00 0.00 76 945.7
20260509005436 54 0.0 0.0 0.00 0.00 0.00 76 945.0
20260509005135 54 0.0 0.0 0.00 0.00 0.00 76 945.0
20260509004836 54 0.0 0.0 0.00 0.00 0.00 76 945.0
20260509004536 54 0.0 0.0 0.00 0.00 0.00 76 945.0
20260509004236 53 0.0 0.0 0.00 0.00 0.00 76 946.0
20260509003936 53 0.0 0.0 0.00 0.00 0.00 76 946.0
20260509003336 53 0.0 0.0 0.00 0.00 0.00 76 946.0
20260509002735 53 0.0 0.0 0.00 0.00 0.00 76 946.0
20260509002435 54 0.0 0.0 0.00 0.00 0.00 76 946.0
20260509002136 54 0.0 0.0 0.00 0.00 0.00 76 946.0
20260509001836 54 0.0 0.0 0.00 0.00 0.00 76 946.0
20260509001536 54 0.0 0.0 0.00 0.00 0.00 76 946.0
20260509001235 54 0.0 0.0 0.00 0.00 0.00 76 946.0
20260509000635 54 0.0 0.0 0.00 0.00 0.00 76 946.0
20260509000335 53 0.0 0.0 0.00 0.00 0.00 76 946.1
20260509000036 53 0.0 0.0 0.00 0.00 0.00 78 946.0
20260508235736 53 0.0 0.0 0.00 0.00 0.00 78 946.0
20260508235436 53 0.0 0.0 0.00 0.00 0.00 78 946.0
20260508235136 53 0.0 0.0 0.00 0.00 0.00 78 946.0
20260508234835 53 0.0 0.0 0.00 0.00 0.00 78 946.0
20260508234536 53 0.0 0.0 0.00 0.00 0.00 78 946.0
20260508233935 53 0.0 0.0 0.00 0.00 0.00 78 946.0
20260508233636 53 0.0 0.0 0.00 0.00 0.00 78 946.0
20260508233036 53 0.0 0.0 0.00 0.00 0.00 78 946.0
20260508232735 53 0.0 0.0 0.00 0.00 0.00 78 946.4
20260508232436 53 0.0 0.0 0.00 0.00 0.00 78 946.4
20260508232135 53 0.0 0.0 0.00 0.00 0.00 78 946.4
20260508231835 53 0.0 0.0 0.00 0.00 0.00 78 946.4
20260508231535 53 0.0 0.0 0.00 0.00 0.00 78 946.4
20260508231235 53 0.0 0.0 0.00 0.00 0.00 78 946.4
20260508230935 53 0.0 0.0 0.00 0.00 0.00 78 946.4
20260508230336 53 0.0 0.0 0.00 0.00 0.00 79 946.0
20260508230036 53 0.0 0.0 0.00 0.00 0.00 79 946.0
20260508225735 53 0.0 0.0 0.00 0.00 0.00 79 946.0
20260508225435 53 0.0 0.0 0.00 0.00 0.00 79 946.0
20260508225136 53 0.0 0.0 0.00 0.00 0.00 79 946.0
20260508224836 53 0.0 0.0 0.00 0.00 0.00 79 946.0
20260508224536 53 0.0 0.0 0.00 0.00 0.00 79 946.0
20260508224236 53 0.0 0.0 0.00 0.00 0.00 79 946.0
20260508223936 53 0.0 0.0 0.00 0.00 0.00 79 946.0
20260508223635 53 0.0 0.0 0.00 0.00 0.00 79 946.0
20260508223335 53 0.0 0.0 0.00 0.00 0.00 78 946.7
20260508223035 53 0.0 0.0 0.00 0.00 0.00 78 946.7
20260508222736 53 0.0 0.0 0.00 0.00 0.00 78 946.7
20260508222435 53 0.0 0.0 0.00 0.00 0.00 78 946.7
20260508222135 53 0.0 0.0 0.00 0.00 0.00 78 946.7
20260508221836 53 0.0 0.0 0.00 0.00 0.00 78 946.7
20260508221536 53 0.0 0.0 0.00 0.00 0.00 78 946.7
20260508221236 53 0.0 0.0 0.00 0.00 0.00 78 946.7
20260508220936 53 0.0 0.0 0.00 0.00 0.00 78 946.7
20260508215735 54 0.0 0.0 0.00 0.00 0.00 76 946.0
20260508215436 54 0.0 0.0 0.00 0.00 0.00 76 946.0
20260508215136 54 0.0 0.0 0.00 0.00 0.00 76 946.0
20260508213935 54 0.0 0.0 0.00 0.00 0.00 76 946.0
20260508213635 55 0.0 0.0 0.00 0.00 0.00 74 947.0
20260508213336 55 0.0 0.0 0.00 0.00 0.00 74 947.0
20260508213036 55 0.0 0.0 0.00 0.00 0.00 74 947.0
20260508212736 55 0.0 0.0 0.00 0.00 0.00 74 947.0
20260508212436 55 0.0 0.0 0.00 0.00 0.00 74 947.0
20260508211836 55 0.0 0.0 0.00 0.00 0.00 74 947.0
20260508211536 55 0.0 0.0 0.00 0.00 0.00 74 947.0
20260508211236 55 0.0 0.0 0.00 0.00 0.00 74 946.9
20260508210636 55 0.0 0.0 0.00 0.00 0.00 72 946.0
20260508210335 55 0.0 0.0 0.00 0.00 0.00 72 946.0
20260508205736 55 0.0 0.0 0.00 0.00 0.00 72 946.0
20260508205435 55 0.0 0.0 0.00 0.00 0.00 72 946.0
20260508205136 55 0.0 0.0 0.00 0.00 0.00 72 946.0
20260508204836 55 0.0 0.0 0.00 0.00 0.00 72 946.0
20260508204536 55 0.0 0.0 0.00 0.00 0.00 72 946.0
20260508204235 55 0.0 0.0 0.00 0.00 0.00 72 946.0
20260508203936 55 0.0 0.0 0.00 0.00 0.00 72 946.0
20260508203636 55 0.0 0.0 0.00 0.00 0.00 72 946.0
20260508203336 55 0.0 0.0 0.00 0.00 0.00 72 946.0
20260508203036 55 0.0 0.0 0.00 0.00 0.00 72 946.0
20260508202736 55 0.0 0.0 0.00 0.00 0.00 72 946.0
20260508202435 55 0.0 0.0 0.00 0.00 0.00 72 946.0
20260508202136 56 0.0 0.0 0.00 0.00 0.00 72 946.5
20260508201835 56 0.0 0.0 0.00 0.00 0.00 72 946.5
20260508200936 56 0.0 0.0 0.00 0.00 0.00 71 946.0
20260508200635 56 0.0 0.0 0.00 0.00 0.00 71 946.0
20260508200336 56 0.0 0.0 0.00 0.00 0.00 70 946.0
20260508200036 56 0.0 0.0 0.00 0.00 0.00 70 946.0
20260508195736 56 0.0 0.0 0.00 0.00 0.00 70 946.0
20260508195436 56 0.0 0.0 0.00 0.00 0.00 70 946.0
20260508194835 56 0.0 0.0 0.00 0.00 0.00 70 946.0
20260508194535 57 0.0 0.0 0.00 0.00 0.00 71 945.0
20260508194236 57 0.0 0.0 0.00 0.00 0.00 71 945.0
20260508193935 57 0.0 0.0 0.00 0.00 0.00 71 945.0
20260508193636 57 0.0 0.0 0.00 0.00 0.00 71 945.0
20260508193036 57 0.0 0.0 0.00 0.00 0.00 71 945.0
20260508192736 57 0.0 0.0 0.00 0.00 0.00 70 945.9
20260508192435 57 0.0 0.0 0.00 0.00 0.00 70 945.9
20260508191835 58 0.0 0.0 0.00 0.00 0.00 69 945.0
20260508191536 58 0.0 0.0 0.00 0.00 0.00 69 945.0
20260508190936 58 0.0 0.0 0.00 0.00 0.00 66 945.0
20260508190636 58 0.0 0.0 0.00 0.00 0.00 66 945.0
20260508190336 58 0.0 0.0 0.00 0.00 0.00 66 945.0
20260508190036 59 0.0 0.0 0.00 0.00 0.00 61 945.0
20260508185436 59 0.0 0.0 0.00 0.00 0.00 61 945.0
20260508185136 60 0.0 0.0 0.00 0.00 0.00 59 945.0
20260508184835 60 0.0 0.0 0.00 0.00 0.00 59 945.0
20260508184536 60 0.0 0.0 0.00 0.00 0.00 59 945.0
20260508184235 61 0.0 0.0 0.00 0.00 0.00 53 945.0
20260508183935 61 0.0 0.0 0.00 0.00 0.00 53 945.0
20260508183636 62 0.0 0.0 0.00 0.00 0.00 50 945.1
20260508183336 62 0.0 0.0 0.00 0.00 0.00 50 945.1
20260508183036 62 0.0 0.0 0.00 0.00 0.00 50 945.1
20260508182735 62 0.0 0.0 0.00 0.00 0.00 50 945.1
20260508182436 62 0.0 0.0 0.00 0.00 0.00 49 945.0
20260508182136 62 0.0 0.0 0.00 0.00 0.00 49 945.0
20260508181836 62 0.0 0.0 0.00 0.00 0.00 49 945.0
20260508181536 63 0.0 0.0 0.00 0.00 0.00 51 945.0
20260508181235 63 0.0 0.0 0.00 0.00 0.00 51 945.0
20260508180336 63 0.0 0.0 0.00 0.00 0.00 51 945.0
20260508180036 63 0.0 0.0 0.00 0.00 0.00 51 945.0
20260508175736 63 0.0 0.0 0.00 0.00 0.00 51 945.0
20260508175436 63 0.0 0.0 0.00 0.00 0.00 51 945.0
20260508175136 63 0.0 0.0 0.00 0.00 0.00 51 945.0
20260508174836 63 0.0 0.0 0.00 0.00 0.00 51 945.0
20260508174536 63 0.0 0.0 0.00 0.00 0.00 51 945.0
20260508174236 63 0.0 0.0 0.00 0.00 0.00 51 945.0
20260508173935 63 0.0 0.0 0.00 0.00 0.00 51 945.0
20260508173636 63 0.0 0.0 0.00 0.00 0.00 51 945.0
20260508172736 64 0.0 0.0 0.00 0.00 0.00 51 944.0
20260508172436 64 0.0 0.0 0.00 0.00 0.00 51 944.0
20260508172136 64 0.0 0.0 0.00 0.00 0.00 51 944.0
20260508171835 64 0.0 0.0 0.00 0.00 0.00 51 944.0
20260508171535 64 0.0 0.0 0.00 0.00 0.00 51 944.0
20260508171236 64 0.0 0.0 0.00 0.00 0.00 51 944.0
20260508170936 64 0.0 0.0 0.00 0.00 0.00 51 944.0
20260508170635 64 0.0 0.0 0.00 0.00 0.00 51 944.0
20260508170335 64 0.0 0.0 0.00 0.00 0.00 51 944.0
20260508170036 64 0.0 0.0 0.00 0.00 0.00 51 944.0
20260508164535 63 0.0 0.0 0.00 0.00 0.00 55 944.0
20260508164235 63 0.0 0.0 0.00 0.00 0.00 55 944.0
20260508163936 63 0.0 0.0 0.00 0.00 0.00 55 944.0
20260508163635 63 0.0 0.0 0.00 0.00 0.00 55 944.0
20260508163035 64 0.0 0.0 0.00 0.00 0.00 57 944.0
20260508162736 64 0.0 0.0 0.00 0.00 0.00 57 944.0
20260508162435 64 0.0 0.0 0.00 0.00 0.00 57 944.0
20260508162136 64 0.0 0.0 0.00 0.00 0.00 57 944.0
20260508161836 64 0.0 0.0 0.00 0.00 0.00 57 944.0
20260508161535 64 0.0 0.0 0.00 0.00 0.00 57 944.0
20260508161235 64 0.0 0.0 0.00 0.00 0.00 57 944.0
20260508160936 64 0.0 0.0 0.00 0.00 0.00 57 944.0
20260508160636 64 0.0 0.0 0.00 0.00 0.00 57 944.0
20260508160335 64 0.0 0.0 0.00 0.00 0.00 57 944.0
20260508160036 64 0.0 0.0 0.00 0.00 0.00 57 944.0
20260508155735 64 0.0 0.0 0.00 0.00 0.00 57 944.0
20260508155436 63 0.0 0.0 0.00 0.00 0.00 57 944.0
20260508155136 63 0.0 0.0 0.00 0.00 0.00 57 944.0
20260508154835 63 0.0 0.0 0.00 0.00 0.00 57 944.0
20260508154236 63 0.0 0.0 0.00 0.00 0.00 56 944.7
20260508153636 64 0.0 0.0 0.00 0.00 0.00 57 944.0
20260508152436 64 0.0 0.0 0.00 0.00 0.00 57 944.0
20260508152136 64 0.0 0.0 0.00 0.00 0.00 57 944.0
20260508151836 64 0.0 0.0 0.00 0.00 0.00 57 944.0
20260508151536 64 0.0 0.0 0.00 0.00 0.00 57 944.0
20260508151235 64 0.0 0.0 0.00 0.00 0.00 57 944.0
20260508150935 64 0.0 0.0 0.00 0.00 0.00 57 944.0
20260508150636 64 0.0 0.0 0.00 0.00 0.00 57 944.0
20260508150335 64 0.0 0.0 0.00 0.00 0.00 57 944.0
20260508150036 63 0.0 0.0 0.00 0.00 0.00 57 945.0
20260508145736 63 0.0 0.0 0.00 0.00 0.00 57 945.0
20260508145436 63 0.0 0.0 0.00 0.00 0.00 57 945.0
20260508145136 63 0.0 0.0 0.00 0.00 0.00 57 945.0
20260508144536 63 0.0 0.0 0.00 0.00 0.00 57 945.0
20260508144236 63 0.0 0.0 0.00 0.00 0.00 56 945.0
20260508143936 63 0.0 0.0 0.00 0.00 0.00 56 945.0
20260508143635 63 0.0 0.0 0.00 0.00 0.00 56 945.0
20260508143335 63 0.0 0.0 0.00 0.00 0.00 56 945.0
20260508143036 63 0.0 0.0 0.00 0.00 0.00 56 945.0
20260508142735 63 0.0 0.0 0.00 0.00 0.00 56 945.0
20260508142436 63 0.0 0.0 0.00 0.00 0.00 56 945.0
20260508142135 63 0.0 0.0 0.00 0.00 0.00 56 945.0
20260508141836 63 0.0 0.0 0.00 0.00 0.00 56 945.0
20260508141536 64 0.0 0.0 0.00 0.00 0.00 58 945.0
20260508141236 64 0.0 0.0 0.00 0.00 0.00 58 945.0
20260508140936 64 0.0 0.0 0.00 0.00 0.00 58 945.0
20260508140636 64 0.0 0.0 0.00 0.00 0.00 58 945.0
20260508140036 64 0.0 0.0 0.00 0.00 0.00 58 945.0
20260508135436 63 0.0 0.0 0.00 0.00 0.00 60 944.0
20260508135136 64 0.0 0.0 0.00 0.00 0.00 62 944.9
20260508134836 64 0.0 0.0 0.00 0.00 0.00 62 944.9
20260508134536 63 0.0 0.0 0.00 0.00 0.00 62 945.0
20260508134235 63 0.0 0.0 0.00 0.00 0.00 62 945.0
20260508133636 63 0.0 0.0 0.00 0.00 0.00 62 945.0
20260508133336 63 0.0 0.0 0.00 0.00 0.00 62 945.0
20260508133036 63 0.0 0.0 0.00 0.00 0.00 62 945.0
20260508132736 62 0.0 0.0 0.00 0.00 0.00 62 945.0
20260508132436 61 0.0 0.0 0.00 0.00 0.00 63 945.0
20260508131235 61 0.0 0.0 0.00 0.00 0.00 63 945.0
20260508130936 60 0.0 0.0 0.00 0.00 0.00 65 945.0
20260508130636 60 0.0 0.0 0.00 0.00 0.00 65 945.0
20260508125736 60 0.0 0.0 0.00 0.00 0.00 71 946.0
20260508125436 61 0.0 0.0 0.00 0.00 0.00 69 946.0
20260508125135 62 0.0 0.0 0.00 0.00 0.00 63 946.2
20260508124536 62 0.0 0.0 0.00 0.00 0.00 58 945.0
20260508124235 62 0.0 0.0 0.00 0.00 0.00 58 945.0
20260508123936 62 0.0 0.0 0.00 0.00 0.00 58 945.0
20260508123636 61 0.0 0.0 0.00 0.00 0.00 57 945.0
20260508123035 61 0.0 0.0 0.00 0.00 0.00 57 945.0
20260508122735 61 0.0 0.0 0.00 0.00 0.00 57 945.0
20260508122436 62 0.0 0.0 0.00 0.00 0.00 55 945.0
20260508122136 63 0.0 0.0 0.00 0.00 0.00 54 945.0
20260508121835 64 0.0 0.0 0.00 0.00 0.00 55 945.0
20260508121235 63 0.0 0.0 0.00 0.00 0.00 56 945.0
20260508120936 63 0.0 0.0 0.00 0.00 0.00 56 945.0
20260508120636 62 0.0 0.0 0.00 0.00 0.00 55 945.0
20260508120336 63 0.0 0.0 0.00 0.00 0.00 54 945.7
20260508120036 63 0.0 0.0 0.00 0.00 0.00 54 945.7
20260508115735 64 0.0 0.0 0.00 0.00 0.00 56 945.0
20260508115436 64 0.0 0.0 0.00 0.00 0.00 56 945.0
20260508115136 64 0.0 0.0 0.00 0.00 0.00 58 946.0
20260508114836 64 0.0 0.0 0.00 0.00 0.00 58 946.0
20260508114235 63 0.0 0.0 0.00 0.00 0.00 57 946.0
20260508113935 63 0.0 0.0 0.00 0.00 0.00 57 946.0
20260508113636 64 0.0 0.0 0.00 0.00 0.00 59 946.0
20260508113036 64 0.0 0.0 0.00 0.00 0.00 59 946.0
20260508112736 63 0.0 0.0 0.00 0.00 0.00 61 946.0
20260508112435 63 0.0 0.0 0.00 0.00 0.00 61 946.0
20260508112135 62 0.0 0.0 0.00 0.00 0.00 63 946.0
20260508111836 62 0.0 0.0 0.00 0.00 0.00 63 946.0
20260508111536 61 0.0 0.0 0.00 0.00 0.00 64 946.0
20260508111235 60 0.0 0.0 0.00 0.00 0.00 67 946.0
20260508110636 57 0.0 0.0 0.00 0.00 0.00 69 946.6
20260508110336 57 0.0 0.0 0.00 0.00 0.00 69 946.0
20260508110036 56 0.0 0.0 0.00 0.00 0.00 69 946.0
20260508105735 56 0.0 0.0 0.00 0.00 0.00 69 946.0
20260508105136 56 0.0 0.0 0.00 0.00 0.00 69 946.0
20260508104836 57 0.0 0.0 0.00 0.00 0.00 67 946.0
20260508104236 59 0.0 0.0 0.00 0.00 0.00 66 947.0
20260508103935 59 0.0 0.0 0.00 0.00 0.00 66 947.0
20260508103636 59 0.0 0.0 0.00 0.00 0.00 66 947.0
20260508103335 60 0.0 0.0 0.00 0.00 0.00 65 946.0
20260508102735 60 0.0 0.0 0.00 0.00 0.00 65 946.0
20260508102436 61 0.0 0.0 0.00 0.00 0.00 62 946.0
20260508102136 61 0.0 0.0 0.00 0.00 0.00 62 946.0
20260508101836 61 0.0 0.0 0.00 0.00 0.00 62 946.0
20260508101535 61 0.0 0.0 0.00 0.00 0.00 62 946.7
20260508101236 62 0.0 0.0 0.00 0.00 0.00 61 946.0
20260508100935 63 0.0 0.0 0.00 0.00 0.00 60 946.0
20260508100636 63 0.0 0.0 0.00 0.00 0.00 60 946.0
20260508100336 63 0.0 0.0 0.00 0.00 0.00 60 946.0
20260508100036 63 0.0 0.0 0.00 0.00 0.00 60 946.0
20260508095735 63 0.0 0.0 0.00 0.00 0.00 60 946.0
20260508095436 63 0.0 0.0 0.00 0.00 0.00 59 946.0
20260508095136 63 0.0 0.0 0.00 0.00 0.00 59 946.0
20260508094836 61 0.0 0.0 0.00 0.00 0.00 61 946.0
20260508094535 62 0.0 0.0 0.00 0.00 0.00 59 946.0
20260508094236 63 0.0 0.0 0.00 0.00 0.00 59 946.0
20260508093935 63 0.0 0.0 0.00 0.00 0.00 59 946.0
20260508093636 63 0.0 0.0 0.00 0.00 0.00 59 946.0
20260508093335 63 0.0 0.0 0.00 0.00 0.00 59 946.0
20260508093036 63 0.0 0.0 0.00 0.00 0.00 59 946.0
20260508092736 61 0.0 0.0 0.00 0.00 0.00 61 946.0
20260508092436 61 0.0 0.0 0.00 0.00 0.00 61 946.0
20260508092135 60 0.0 0.0 0.00 0.00 0.00 62 946.0
20260508091536 59 0.0 0.0 0.00 0.00 0.00 62 946.2
20260508091236 58 0.0 0.0 0.00 0.00 0.00 64 946.0
20260508090336 58 0.0 0.0 0.00 0.00 0.00 64 946.0
20260508090035 57 0.0 0.0 0.00 0.00 0.00 66 946.0
20260508085435 57 0.0 0.0 0.00 0.00 0.00 67 946.0
20260508085135 57 0.0 0.0 0.00 0.00 0.00 67 946.0
20260508084836 56 0.0 0.0 0.00 0.00 0.00 68 946.0
20260508084536 56 0.0 0.0 0.00 0.00 0.00 68 946.0
20260508084236 56 0.0 0.0 0.00 0.00 0.00 68 946.0
20260508083935 55 0.0 0.0 0.00 0.00 0.00 70 946.0
20260508083635 55 0.0 0.0 0.00 0.00 0.00 70 946.0
20260508083335 55 0.0 0.0 0.00 0.00 0.00 70 946.0
20260508083035 55 0.0 0.0 0.00 0.00 0.00 70 946.0
20260508082736 54 0.0 0.0 0.00 0.00 0.00 71 946.1
20260508082436 54 0.0 0.0 0.00 0.00 0.00 71 946.1
20260508082136 54 0.0 0.0 0.00 0.00 0.00 71 946.1
20260508081836 54 0.0 0.0 0.00 0.00 0.00 71 946.0
20260508081536 53 0.0 0.0 0.00 0.00 0.00 73 946.0
20260508081236 53 0.0 0.0 0.00 0.00 0.00 73 946.0
20260508080936 53 0.0 0.0 0.00 0.00 0.00 73 946.0
20260508080635 52 0.0 0.0 0.00 0.00 0.00 74 946.0
20260508080336 52 0.0 0.0 0.00 0.00 0.00 74 946.0
20260508075736 52 0.0 0.0 0.00 0.00 0.00 74 946.0